TimeCDT,TemperatureF,Dew PointF,Humidity,Sea Level PressureIn,VisibilityMPH,Wind Direction,Wind SpeedMPH,Gust SpeedMPH,PrecipitationIn,Events,Conditions,WindDirDegrees,DateUTC
12:53 AM,63.0,60.1,90,30.06,10.0,Calm,Calm,-,N/A,,Mostly Cloudy,0,2011-10-10 05:53:00
1:53 AM,63.0,60.1,90,30.06,10.0,NW,4.6,-,N/A,,Overcast,310,2011-10-10 06:53:00
2:53 AM,63.0,60.1,90,30.06,10.0,WNW,4.6,-,N/A,,Overcast,300,2011-10-10 07:53:00
3:53 AM,62.1,59.0,90,30.04,10.0,NW,4.6,-,0.00,,Overcast,310,2011-10-10 08:53:00
4:53 AM,60.8,59.0,94,30.05,10.0,North,3.5,-,N/A,Rain,Light Rain,360,2011-10-10 09:53:00
5:53 AM,60.1,59.0,96,30.04,10.0,Calm,Calm,-,0.04,Rain,Light Rain,0,2011-10-10 10:53:00
6:37 AM,60.8,59.0,94,30.06,10.0,Calm,Calm,-,0.03,Rain,Light Rain,0,2011-10-10 11:37:00
6:44 AM,60.8,59.0,94,30.06,10.0,Calm,Calm,-,0.03,,Overcast,0,2011-10-10 11:44:00
6:53 AM,60.1,59.0,96,30.05,10.0,Calm,Calm,-,0.03,,Overcast,0,2011-10-10 11:53:00
7:46 AM,59.0,59.0,100,30.06,10.0,Calm,Calm,-,N/A,,Mostly Cloudy,0,2011-10-10 12:46:00
7:53 AM,60.8,60.8,100,30.06,10.0,Calm,Calm,-,N/A,,Mostly Cloudy,0,2011-10-10 12:53:00
8:53 AM,61.0,59.0,93,30.06,10.0,Calm,Calm,-,0.00,,Overcast,0,2011-10-10 13:53:00
9:53 AM,62.1,59.0,90,30.07,9.0,Calm,Calm,-,N/A,,Overcast,0,2011-10-10 14:53:00
10:15 AM,62.6,60.8,94,30.08,10.0,Calm,Calm,-,N/A,,Overcast,0,2011-10-10 15:15:00
10:53 AM,64.4,60.8,88,30.07,10.0,Calm,Calm,-,N/A,,Overcast,0,2011-10-10 15:53:00
11:17 AM,64.4,60.8,88,30.07,10.0,West,3.5,-,N/A,,Overcast,260,2011-10-10 16:17:00
11:26 AM,64.4,60.8,88,30.07,10.0,Calm,Calm,-,N/A,,Overcast,0,2011-10-10 16:26:00
11:53 AM,66.0,59.0,78,30.05,10.0,Calm,Calm,-,N/A,,Mostly Cloudy,0,2011-10-10 16:53:00
12:15 PM,68.0,60.8,78,30.06,10.0,SW,3.5,-,N/A,,Scattered Clouds,220,2011-10-10 17:15:00
12:53 PM,69.8,59.0,68,30.05,10.0,WNW,8.1,-,N/A,,Mostly Cloudy,290,2011-10-10 17:53:00
1:53 PM,71.1,57.0,61,30.01,10.0,WSW,4.6,-,N/A,,Partly Cloudy,240,2011-10-10 18:53:00
2:53 PM,71.6,57.2,60,29.99,10.0,Variable,4.6,-,N/A,,Mostly Cloudy,0,2011-10-10 19:53:00
3:53 PM,72.0,57.9,61,29.97,10.0,South,5.8,-,N/A,,Mostly Cloudy,170,2011-10-10 20:53:00
4:53 PM,72.0,57.9,61,29.96,10.0,ESE,3.5,-,N/A,,Clear,110,2011-10-10 21:53:00
5:53 PM,72.0,59.0,64,29.95,10.0,ESE,9.2,-,N/A,,Partly Cloudy,120,2011-10-10 22:53:00
6:53 PM,68.0,60.8,78,29.97,10.0,ESE,6.9,-,N/A,,Clear,120,2011-10-10 23:53:00
7:53 PM,64.0,60.1,87,29.96,10.0,ESE,4.6,-,N/A,,Clear,120,2011-10-11 00:53:00
8:53 PM,63.0,60.1,90,29.97,10.0,Calm,Calm,-,N/A,,Clear,0,2011-10-11 01:53:00
9:53 PM,61.0,59.0,93,29.97,10.0,ESE,3.5,-,N/A,,Clear,110,2011-10-11 02:53:00
10:53 PM,59.0,57.9,96,29.97,9.0,Calm,Calm,-,N/A,,Clear,0,2011-10-11 03:53:00
11:53 PM,61.0,59.0,93,29.96,8.0,SSE,5.8,-,N/A,,Clear,150,2011-10-11 04:53:00